EW2974 Weather Reports


time (UTC)temp
C
wind
direction
speed
KPH
gust
KPH
rain 1hr
cm
rain 24hr
cm
rain mn
cm
humidity
%
barometer
mb
20260508035905 4 250 0.0 0.0 0.00 0.00 0.00 80 1012.2
20260508035404 4 250 0.0 0.0 0.00 0.00 0.00 79 1012.2
20260508034904 4 250 0.0 0.0 0.00 0.00 0.00 79 1012.1
20260508033905 4 250 0.0 0.0 0.00 0.00 0.00 78 1012.0
20260508033404 4 250 0.0 0.0 0.00 0.00 0.00 78 1012.1
20260508032904 5 250 0.0 0.0 0.00 0.00 0.00 77 1012.0
20260508032404 5 250 0.0 0.0 0.00 0.00 0.00 77 1012.0
20260508031905 5 250 0.0 0.0 0.00 0.00 0.00 75 1012.0
20260508031404 5 250 0.0 0.0 0.00 0.00 0.00 76 1012.0
20260508030905 5 250 0.0 0.0 0.00 0.00 0.00 74 1012.0
20260508030405 5 250 0.0 0.0 0.00 0.00 0.00 75 1012.0
20260508025904 5 250 0.0 0.0 0.00 0.00 0.00 73 1012.0
20260508025407 5 250 0.0 0.0 0.00 0.00 0.00 73 1012.1
20260508024404 5 250 0.0 0.0 0.00 0.00 0.00 72 1012.1
20260508023904 5 250 0.0 0.0 0.00 0.00 0.00 72 1012.1
20260508023405 6 250 0.0 0.0 0.00 0.00 0.00 71 1012.1
20260508022904 6 250 0.0 0.0 0.00 0.00 0.00 71 1012.0
20260508022404 6 250 0.0 0.0 0.00 0.00 0.00 70 1012.0
20260508021904 6 250 0.0 0.0 0.00 0.00 0.00 69 1012.0
20260508021404 6 250 0.0 0.0 0.00 0.00 0.00 67 1011.9
20260508020905 6 250 0.0 0.0 0.00 0.00 0.00 67 1011.9
20260508020404 7 250 0.0 0.0 0.00 0.00 0.00 66 1012.0
20260508015904 7 250 0.0 0.0 0.00 0.00 0.00 67 1012.0
20260508015404 7 250 0.0 0.0 0.00 0.00 0.00 64 1012.0
20260508014405 7 250 0.0 0.0 0.00 0.00 0.00 59 1011.9
20260508013904 7 250 0.0 0.0 0.00 0.00 0.00 58 1011.8
20260508013404 8 250 0.0 0.0 0.00 0.00 0.00 58 1011.8
20260508012904 8 250 0.0 0.0 0.00 0.00 0.00 57 1011.8
20260508011904 8 250 0.0 0.0 0.00 0.00 0.00 56 1011.8
20260508011405 8 250 0.0 0.0 0.00 0.00 0.00 56 1011.7
20260508010904 9 250 0.0 0.0 0.00 0.00 0.00 52 1011.7
20260508005904 10 250 0.0 0.0 0.00 0.00 0.00 50 1011.7
20260508005405 10 250 0.0 0.0 0.00 0.00 0.00 48 1011.7
20260508004904 10 250 0.0 0.0 0.00 0.00 0.00 49 1011.7
20260508004404 10 250 0.0 0.0 0.00 0.00 0.00 48 1011.7
20260508003904 10 250 0.0 0.0 0.00 0.00 0.00 47 1011.7
20260508003404 10 250 0.0 1.6 0.00 0.00 0.00 46 1011.6
20260508002904 10 250 0.0 0.0 0.00 0.00 0.00 45 1011.5
20260508002405 10 245 0.0 0.0 0.00 0.00 0.00 45 1011.5
20260508001904 11 235 0.0 0.0 0.00 0.00 0.00 48 1011.3
20260508001404 11 236 0.0 4.8 0.00 0.00 0.00 45 1011.2
20260508000904 11 234 0.0 1.6 0.00 0.03 0.00 48 1011.2
20260508000405 11 236 0.0 0.0 0.00 0.03 0.00 45 1011.4
20260507235904 11 242 0.0 4.8 0.00 0.03 0.00 47 1011.3
20260507235404 11 250 0.0 0.0 0.00 0.03 0.00 46 1011.2
20260507234904 11 256 1.6 14.5 0.00 0.03 0.00 43 1011.2
20260507234404 11 350 0.0 8.0 0.00 0.03 0.00 46 1011.2
20260507233904 11 241 4.8 19.3 0.00 0.03 0.00 42 1011.3
20260507233405 12 271 3.2 33.8 0.00 0.03 0.00 42 1011.2
20260507232404 12 252 1.6 8.0 0.00 0.03 0.00 42 1011.0
20260507231904 12 250 3.2 9.7 0.00 0.03 0.00 43 1011.1
20260507231404 12 256 0.0 9.7 0.00 0.03 0.00 44 1011.0
20260507230904 12 255 4.8 12.9 0.00 0.03 0.00 44 1010.9
20260507230404 12 234 4.8 9.7 0.00 0.03 0.00 44 1011.2
20260507225404 12 259 6.4 25.7 0.00 0.03 0.00 45 1011.1
20260507224904 12 272 1.6 27.4 0.00 0.03 0.00 50 1011.1
20260507224405 12 291 3.2 27.4 0.00 0.03 0.00 48 1011.2
20260507223905 12 216 0.0 12.9 0.00 0.03 0.00 51 1011.1
20260507223404 12 263 4.8 19.3 0.00 0.03 0.00 52 1011.1
20260507222904 12 252 3.2 14.5 0.00 0.03 0.00 52 1011.2
20260507222404 12 250 4.8 19.3 0.00 0.03 0.00 51 1011.1
20260507221904 12 253 1.6 8.0 0.00 0.03 0.00 53 1011.0
20260507221404 12 235 3.2 25.7 0.00 0.03 0.00 52 1011.1
20260507220904 12 199 1.6 19.3 0.00 0.03 0.00 53 1011.0
20260507220405 12 179 1.6 12.9 0.00 0.03 0.00 53 1010.9
20260507215904 12 125 0.0 1.6 0.00 0.03 0.00 54 1010.8
20260507215404 12 48 0.0 4.8 0.00 0.03 0.00 52 1010.6
20260507214904 12 317 0.0 0.0 0.00 0.03 0.00 52 1010.7
20260507214404 12 319 0.0 12.9 0.00 0.03 0.00 52 1010.6
20260507213905 12 247 0.0 9.7 0.00 0.03 0.00 54 1010.6
20260507213404 12 269 4.8 27.4 0.00 0.03 0.00 50 1010.4
20260507212905 12 194 0.0 8.0 0.00 0.03 0.00 50 1010.2
20260507212404 13 267 0.0 4.8 0.00 0.03 0.00 48 1010.1
20260507211904 13 229 8.0 19.3 0.00 0.03 0.00 48 1010.1
20260507211404 13 255 0.0 0.0 0.00 0.03 0.00 50 1010.1
20260507210904 13 222 0.0 0.0 0.00 0.03 0.00 49 1009.9
20260507210404 13 128 0.0 4.8 0.00 0.03 0.00 49 1010.1
20260507205905 14 283 3.2 9.7 0.00 0.03 0.00 45 1009.9
20260507205404 13 244 0.0 19.3 0.00 0.03 0.00 49 1009.8
20260507204904 13 258 8.0 22.5 0.00 0.03 0.00 45 1009.7
20260507204404 13 259 1.6 14.5 0.00 0.03 0.00 49 1009.7
20260507203904 13 254 1.6 12.9 0.00 0.03 0.00 48 1009.7
20260507203404 13 251 4.8 14.5 0.00 0.03 0.00 44 1009.8
20260507202404 14 275 1.6 12.9 0.00 0.03 0.00 48 1009.8
20260507201904 15 256 1.6 9.7 0.00 0.03 0.00 43 1009.6
20260507201404 15 237 3.2 19.3 0.00 0.03 0.00 42 1009.6
20260507200904 15 286 0.0 12.9 0.00 0.03 0.00 45 1009.7
20260507200404 15 260 4.8 22.5 0.00 0.03 0.00 46 1009.8
20260507195904 15 257 9.7 25.7 0.00 0.03 0.00 44 1009.9
20260507195404 15 280 3.2 12.9 0.00 0.03 0.00 46 1010.0
20260507194905 14 295 1.6 12.9 0.00 0.03 0.00 50 1010.2
20260507194404 13 256 3.2 19.3 0.00 0.03 0.00 47 1010.3
20260507193904 13 271 6.4 25.7 0.00 0.03 0.00 49 1010.3
20260507193404 13 247 1.6 14.5 0.00 0.03 0.00 50 1010.3
20260507192904 13 258 8.0 27.4 0.00 0.03 0.00 48 1010.4
20260507192404 13 250 3.2 27.4 0.00 0.03 0.00 49 1010.3
20260507191904 13 278 8.0 19.3 0.00 0.03 0.00 46 1010.3
20260507191404 13 288 0.0 12.9 0.00 0.03 0.00 47 1010.3
20260507190904 13 243 4.8 12.9 0.00 0.03 0.00 47 1010.3
20260507190404 13 299 3.2 22.5 0.00 0.03 0.00 47 1010.2
20260507185904 13 228 0.0 9.7 0.00 0.03 0.00 50 1010.2
20260507185404 13 248 1.6 27.4 0.00 0.03 0.00 46 1010.2
20260507184904 14 273 9.7 22.5 0.00 0.03 0.00 44 1010.1
20260507184404 14 231 1.6 9.7 0.00 0.03 0.00 43 1010.0
20260507183904 14 265 0.0 8.0 0.00 0.03 0.00 45 1010.0
20260507183404 14 254 3.2 14.5 0.00 0.03 0.00 44 1010.1
20260507182907 15 214 0.0 1.6 0.00 0.03 0.00 42 1009.9
20260507181904 13 259 0.0 0.0 0.00 0.03 0.00 48 1010.0
20260507181404 13 259 0.0 9.7 0.00 0.03 0.00 44 1010.1
20260507180904 13 252 0.0 0.0 0.00 0.03 0.00 47 1010.1
20260507180404 14 252 0.0 0.0 0.00 0.03 0.00 45 1010.0
20260507175904 14 252 0.0 8.0 0.00 0.03 0.00 44 1010.1
20260507175404 14 256 3.2 22.5 0.00 0.03 0.00 43 1010.0
20260507174904 13 293 4.8 19.3 0.00 0.03 0.00 43 1010.1
20260507174404 13 252 4.8 9.7 0.00 0.03 0.00 43 1010.1
20260507173903 13 247 0.0 8.0 0.00 0.03 0.00 42 1010.2
20260507172904 14 247 3.2 12.9 0.00 0.03 0.00 43 1010.2
20260507172404 14 259 0.0 12.9 0.00 0.03 0.00 41 1010.3
20260507171904 15 263 4.8 19.3 0.00 0.03 0.00 39 1010.3
20260507171404 16 272 1.6 12.9 0.00 0.03 0.00 42 1010.2
20260507170404 15 257 6.4 22.5 0.00 0.03 0.00 42 1010.3
20260507165904 15 206 1.6 9.7 0.00 0.03 0.00 50 1010.3
20260507165404 13 5 0.0 1.6 0.00 0.03 0.00 47 1010.5
20260507164904 13 262 4.8 12.9 0.00 0.03 0.00 46 1010.5
20260507164404 13 252 1.6 12.9 0.00 0.03 0.00 44 1010.6
20260507163904 14 238 9.7 22.5 0.00 0.03 0.00 45 1010.5
20260507162404 13 269 4.8 22.5 0.00 0.03 0.00 46 1010.6
20260507161904 14 245 1.6 8.0 0.00 0.03 0.00 44 1010.5
20260507161404 14 220 1.6 8.0 0.00 0.03 0.00 48 1010.5
20260507160904 13 240 4.8 9.7 0.00 0.03 0.00 51 1010.7
20260507160404 13 253 11.3 19.3 0.00 0.03 0.00 49 1010.8
20260507155404 13 246 8.0 22.5 0.00 0.03 0.00 47 1010.9
20260507154904 12 272 6.4 14.5 0.00 0.03 0.00 54 1011.0
20260507154404 12 250 1.6 14.5 0.00 0.03 0.00 52 1011.0
20260507153904 13 264 4.8 12.9 0.00 0.03 0.00 48 1011.0
20260507153404 12 265 4.8 22.5 0.00 0.03 0.00 50 1011.1
20260507152904 13 275 14.5 22.5 0.00 0.03 0.00 50 1011.0
20260507152404 12 261 0.0 8.0 0.00 0.03 0.00 55 1011.0
20260507151904 12 261 0.0 4.8 0.00 0.03 0.00 52 1011.1
20260507150404 13 266 11.3 20.9 0.00 0.03 0.00 51 1011.0
20260507145904 12 254 3.2 9.7 0.00 0.03 0.00 54 1011.0
20260507145404 12 218 4.8 14.5 0.00 0.03 0.00 53 1011.0
20260507144904 13 189 4.8 9.7 0.00 0.03 0.00 55 1011.0
20260507144404 13 248 3.2 12.9 0.00 0.03 0.00 55 1011.0
20260507143904 13 273 4.8 12.9 0.00 0.03 0.00 55 1011.0
20260507143404 12 271 3.2 14.5 0.00 0.03 0.00 58 1011.0
20260507142904 12 274 11.3 19.3 0.00 0.03 0.00 59 1011.0
20260507142404 12 157 8.0 14.5 0.00 0.03 0.00 62 1011.0
20260507141904 12 218 1.6 9.7 0.00 0.03 0.00 60 1011.2
20260507141404 12 213 3.2 14.5 0.00 0.03 0.00 64 1011.3
20260507140905 11 166 8.0 14.5 0.00 0.03 0.00 63 1011.3
20260507140404 11 213 4.8 9.7 0.00 0.03 0.00 66 1011.4
20260507135904 11 201 4.8 12.9 0.00 0.03 0.00 64 1011.5
20260507135404 11 223 4.8 9.7 0.00 0.03 0.00 66 1011.6
20260507134904 11 190 0.0 4.8 0.00 0.03 0.00 66 1011.6
20260507134404 11 191 4.8 8.0 0.00 0.03 0.00 67 1011.6
20260507133904 11 156 6.4 12.9 0.00 0.03 0.00 69 1011.7
20260507133404 10 221 0.0 4.8 0.00 0.03 0.00 66 1011.8
20260507132904 10 200 0.0 8.0 0.00 0.03 0.00 67 1011.8
20260507132404 10 195 1.6 8.0 0.00 0.03 0.00 68 1011.9
20260507131404 10 240 0.0 9.7 0.00 0.03 0.00 71 1011.9
20260507130904 10 251 3.2 8.0 0.00 0.03 0.00 69 1011.9
20260507130404 9 237 4.8 8.0 0.00 0.03 0.00 71 1011.9
20260507125904 9 219 1.6 4.8 0.00 0.03 0.00 74 1011.8
20260507125404 8 263 0.0 4.8 0.00 0.03 0.00 76 1012.0
20260507124903 8 267 0.0 4.8 0.00 0.03 0.00 76 1012.0
20260507124404 8 267 0.0 8.0 0.00 0.03 0.00 77 1012.0
20260507123904 7 268 8.0 9.7 0.00 0.03 0.00 77 1012.0
20260507123404 7 256 1.6 8.0 0.00 0.03 0.00 80 1012.0
20260507122904 7 229 3.2 9.7 0.00 0.03 0.00 80 1011.9
20260507122404 6 184 1.6 4.8 0.00 0.03 0.00 82 1012.0
20260507121404 6 164 1.6 8.0 0.00 0.03 0.00 85 1012.1
20260507120404 5 143 0.0 0.0 0.00 0.03 0.00 90 1012.2
20260507115904 5 139 0.0 1.6 0.00 0.03 0.00 91 1012.2
20260507115404 4 134 0.0 0.0 0.00 0.03 0.00 92 1012.3
20260507114404 4 133 0.0 0.0 0.00 0.03 0.00 92 1012.3
20260507113904 3 133 0.0 0.0 0.00 0.03 0.00 92 1012.3
20260507113404 3 133 0.0 0.0 0.00 0.03 0.00 92 1012.3
20260507112903 3 133 0.0 0.0 0.00 0.03 0.00 92 1012.2
20260507112404 3 133 0.0 0.0 0.00 0.03 0.00 92 1012.3
20260507111904 3 133 0.0 0.0 0.00 0.03 0.00 92 1012.3
20260507111404 3 133 0.0 0.0 0.00 0.03 0.00 93 1012.1
20260507110904 3 133 0.0 0.0 0.00 0.03 0.00 93 1012.1
20260507110405 3 133 0.0 0.0 0.00 0.03 0.00 92 1012.2
20260507105904 3 133 0.0 0.0 0.00 0.03 0.00 93 1012.0
20260507105404 3 133 0.0 0.0 0.00 0.03 0.00 92 1012.0
20260507104404 3 133 0.0 0.0 0.00 0.03 0.00 93 1011.9
20260507103903 3 133 0.0 0.0 0.00 0.03 0.00 92 1011.8
20260507103404 3 133 0.0 0.0 0.00 0.03 0.00 92 1011.9
20260507102904 3 133 0.0 0.0 0.00 0.03 0.00 92 1011.9
20260507101904 3 133 0.0 0.0 0.00 0.05 0.00 92 1011.9
20260507101404 3 133 0.0 0.0 0.00 0.05 0.00 92 1011.8
20260507100904 3 133 0.0 0.0 0.00 0.08 0.00 92 1011.7
20260507100404 3 133 0.0 0.0 0.00 0.08 0.00 92 1011.6
20260507095904 3 133 0.0 0.0 0.00 0.10 0.00 92 1011.6
20260507094903 3 133 0.0 0.0 0.00 0.13 0.00 92 1011.6
20260507094404 3 133 0.0 0.0 0.00 0.15 0.00 93 1011.6
20260507093904 3 133 0.0 0.0 0.00 0.18 0.00 93 1011.6
20260507093403 3 133 0.0 0.0 0.00 0.20 0.00 93 1011.7
20260507092904 3 133 0.0 0.0 0.00 0.20 0.00 92 1011.7
20260507092404 2 133 0.0 0.0 0.00 0.20 0.00 92 1011.7
20260507091404 2 133 0.0 0.0 0.00 0.23 0.00 92 1011.9
20260507090904 2 133 0.0 0.0 0.00 0.23 0.00 92 1011.9
20260507085904 2 133 0.0 0.0 0.00 0.23 0.00 92 1011.8
20260507085404 2 133 0.0 0.0 0.00 0.25 0.00 91 1011.7
20260507084904 2 133 0.0 0.0 0.00 0.25 0.00 91 1011.7
20260507084404 2 133 0.0 0.0 0.00 0.28 0.00 91 1011.8
20260507083904 3 133 0.0 0.0 0.00 0.30 0.00 91 1011.7
20260507083404 3 133 0.0 0.0 0.00 0.33 0.00 91 1011.7
20260507082905 3 133 0.0 0.0 0.00 0.36 0.00 91 1011.8
20260507082405 3 133 0.0 0.0 0.00 0.41 0.00 91 1011.8
20260507081904 3 133 0.0 0.0 0.00 0.46 0.00 91 1011.9
20260507081404 3 133 0.0 0.0 0.00 0.48 0.00 91 1012.0
20260507080904 3 133 0.0 0.0 0.00 0.53 0.00 91 1012.0
20260507080404 3 133 0.0 0.0 0.00 0.56 0.00 91 1011.9
20260507075904 3 133 0.0 0.0 0.00 0.58 0.00 91 1012.0
20260507075403 3 133 0.0 0.0 0.00 0.64 0.00 91 1011.9
20260507074904 3 133 0.0 0.0 0.00 0.66 0.00 91 1012.0
20260507074404 3 133 0.0 0.0 0.00 0.69 0.00 90 1012.0
20260507073904 3 133 0.0 0.0 0.00 0.71 0.00 90 1012.0
20260507073404 3 133 0.0 0.0 0.00 0.76 0.00 90 1012.0
20260507072403 3 133 0.0 0.0 0.00 0.79 0.00 90 1012.0
20260507071903 3 133 0.0 0.0 0.00 0.81 0.00 90 1011.9
20260507071404 3 133 0.0 0.0 0.00 0.84 0.00 89 1012.0
20260507070904 3 133 0.0 0.0 0.00 0.86 0.00 89 1012.0
20260507070404 3 133 0.0 0.0 0.00 0.89 0.00 89 1012.0
20260507065904 3 133 0.0 0.0 0.00 0.89 0.00 89 1011.9
20260507065403 4 133 0.0 0.0 0.00 0.91 0.00 89 1012.0
20260507064403 4 133 0.0 0.0 0.00 0.97 0.00 88 1012.1
20260507063903 4 133 0.0 0.0 0.00 0.97 0.00 88 1012.2
20260507063403 4 133 0.0 0.0 0.00 0.99 0.00 87 1012.2
20260507062903 5 133 0.0 0.0 0.00 1.02 0.00 87 1012.2
20260507061904 5 133 0.0 0.0 0.00 1.04 0.00 86 1012.4
20260507061404 5 133 0.0 0.0 0.00 1.07 0.00 86 1012.5
20260507060903 5 133 0.0 0.0 0.00 1.09 0.00 85 1012.4
20260507060404 5 133 0.0 0.0 0.00 1.09 0.00 85 1012.4
20260507055405 5 133 0.0 0.0 0.00 1.14 0.00 85 1012.4
20260507053403 6 133 0.0 0.0 0.00 1.17 0.00 83 1012.5
20260507052905 6 133 0.0 0.0 0.00 1.19 0.00 83 1012.5
20260507052405 6 133 0.0 0.0 0.00 1.19 0.00 83 1012.5
20260507051905 6 133 0.0 0.0 0.00 1.22 0.00 83 1012.5
20260507051405 6 133 0.0 0.0 0.00 1.22 0.00 82 1012.4
20260507050905 6 133 0.0 0.0 0.00 1.24 0.00 83 1012.5
20260507050405 6 133 0.0 0.0 0.00 1.24 0.00 82 1012.6
20260507045905 6 133 0.0 0.0 0.00 1.27 0.00 82 1012.6
20260507045405 6 133 0.0 0.0 0.00 1.27 0.00 81 1012.6
20260507044905 6 133 0.0 0.0 0.00 1.30 0.00 81 1012.7
20260507044405 6 133 0.0 0.0 0.00 1.30 0.00 81 1012.8
20260507042904 6 133 0.0 0.0 0.00 1.35 0.00 78 1012.9
20260507042405 6 133 0.0 0.0 0.00 1.37 0.00 78 1013.0
20260507041905 6 133 0.0 0.0 0.00 1.37 0.00 78 1013.1
20260507041405 6 133 0.0 0.0 0.00 1.40 0.00 77 1013.1
20260507040905 6 133 0.0 0.0 0.00 1.42 0.00 77 1013.1
20260507040405 6 133 0.0 0.0 0.00 1.45 0.00 75 1013.2